Regional Weather Roundup
Issued by NWS Jackson, KY

Home | Current Version | Previous Version | Text Only | Print | Product List | Glossary Off
Versions: 1 2 3 4 5 6 7 8 9 10 11 12 13 14 15 16 17 18 19 20 21 22 23 24 25 26 27 28 29 30 31 32 33 34 35 36 37 38 39 40 41 42 43 44 45 46 47 48 49 50

000
ASUS43 KJKL 211319
RWRJKL

EAST KENTUCKY HOURLY WEATHER ROUNDUP
NATIONAL WEATHER SERVICE JACKSON KY
800 AM EST FRI NOV 21 2014

NOTE: "FAIR" INDICATES FEW OR NO CLOUDS BELOW 12,000 FEET WITH
NO SIGNIFICANT WEATHER AND/OR OBSTRUCTIONS TO VISIBILITY.

* THESE REPORTS ARE NOT UNDER NWS QUALITY CONTROL AND MAY NOT
  REPORT WEATHER SUCH AS PRECIPITATION AND FOG.

KYZ079-080-083-085-087-088-110-112-115-119-120-211400
...EASTERN KENTUCKY...

CITY           SKY/WX    TMP DP  RH WIND       PRES   REMARKS
JACKSON        CLEAR     23  16  74 CALM      30.43R
LONDON         CLEAR     20  16  84 CALM      30.45R
SOMERSET*      CLEAR     19  19 100 CALM      30.47R
MONTICELLO*    CLEAR     17  15  92 CALM      30.48R
MIDDLESBORO*   CLEAR     22  19  91 CALM      30.45R
HARLAN APT*    SUNNY     23  19  86 CALM      30.42R
BIG SANDY*     SUNNY     24  17  77 CALM      30.44R
MOREHEAD APT*  SUNNY     21  16  79 CALM      30.48R
$$

KYZ035-036-041-042-044-050-067-078-099-211400
...CENTRAL KENTUCKY...

CITY           SKY/WX    TMP DP  RH WIND       PRES   REMARKS
MT STERLING*   CLEAR     14  12  92 W3        30.47R
FLEMING/MASON* CLEAR     19  14  82 CALM      30.48R
DANVILLE*      CLEAR     19  18  93 CALM      30.47R
RICHMOND*      CLEAR     18  16  93 CALM      30.46R
LEXINGTON      CLEAR     17  14  88 SE3       30.46R
FRANKFORT      CLEAR     14  10  84 CALM      30.46R
$$

KYZ091>093-OHZ055-061-077-WVZ005-015-034-035-042-211400
...SOUTHERN OHIO/WEST VIRGINIA...

CITY           SKY/WX    TMP DP  RH WIND       PRES   REMARKS
COVINGTON      CLEAR     14   7  73 CALM      30.45R
COLUMBUS       PTCLDY    16   6  65 VRB3      30.45R
DAYTON         PTCLDY    13   6  74 NW3       30.44R
WILMINGTON     PTCLDY     9   5  84 CALM      30.44R
HUNTINGTON     CLEAR     20  16  84 CALM      30.46R
CHARLESTON     CLEAR     22  17  81 W3        30.44R
PINEVILLE*     CLEAR     21  20  96 MISG      30.45R
BECKLEY        PTCLDY    20  12  71 NW6       30.33R WCI  12
BLUEFIELD      PTCLDY    20  13  74 NW10      30.31R WCI   9
$$

VAZ002-007-008-TNZ017-027-036-066-071-211400
...SOUTHWEST VIRGINIA/EAST TENNESSEE...

CITY           SKY/WX    TMP DP  RH WIND       PRES   REMARKS
WISE*          CLEAR     21  14  73 NW5       30.35R WCI  15
JONESVILLE*    SUNNY     23  18  80 CALM      30.44R
ABINGDON*      CLEAR     28  17  62 N7        30.38R WCI  21
BRISTOL        CLEAR     25  18  74 CALM      30.40R
KNOXVILLE      PTCLDY    29  22  75 NE6       30.42R WCI  23
OAK RIDGE      CLEAR     30  22  72 CALM      30.44R
CROSSVILLE     CLEAR     27  19  72 NE5       30.38R WCI  22
NASHVILLE      PTCLDY    33  24  69 E5        30.44R WCI  29
$$

...KEY TO REMARKS...
VSB - VISIBILITY IN MILES
WCI - WIND CHILL INDEX
HX  - HEAT INDEX

$$



USA.gov is the U.S. government's official web portal to all federal, state and local government web resources and services.